Погода Усть-Ишим

Погода Усть-Ишим : погода сейчас, прогноз погоды и архив. Всё, что Вы хотите узнать о погоде Усть-Ишим!

Хотите узнать прогноз погоды Усть-Ишим? Тогда Вам сюда: Погода Усть-Ишим

Поиск расширенной информации на нашем сайте:

Полезная информация: Мебельные фасады из мдф профиля как оформить заказ мебельные фасады на заказ.

Другие новости

Новости СМИ2

Главная страница сайта

Новости сайта

02.10.2013

Напоминаем, что на нашем новом сайте вы можете получить высокодетализированные прогнозы погоды по пунктам России, СНГ и мира (включающие важные для авиации метеовеличины, такие как направление и скорость ветра, видимость, явления погоды, количество и форма облачности, нижняя и верхняя граница облачности), а также ознакомиться с разнообразными материалами по авиационной метеорологии и подборкой полезных ссылок на эту тему.

Сайт Метеоцентр.Азия посвящён разработке технологий оптимизации авиаметеорологического обслуживания, включая проектирование и перспективное создание нескольких автоматизированных авиаметеорологических систем:
- система выпуска высокодетальных прогностических карт явлений погоды для нижнего воздушного пространства по России и ближнему зарубежью;
- система верификации прогнозов TAF (выпускаемых синоптиками официальных АМСГ РФ и ближнего зарубежья) и AUTOTAF (выпускаемых сайтом Метеоцентр.Азия) - выявление ошибок, онлайн-сопоставление с фактической погодой METAR, автоматическое внесение коррективов в прогнозы при резком отклонении фактической погоды от прогноза, подсчёт оправдываемости прогнозов по элементам и в целом;
- система обработки, анализа и отображения авиаметеорологической информации для применения провайдерами метеорологической информации.

Рекомендуем: Копии часов гесс элитные копии часов.

Погода Усть-Ишим - сегодня

Время (UTC), дата Ветер
(°,м/с) 
Видим.   Явления Облачность Т
(°С)
Тd
(°С)
f(%) Тe
(°С)
Pmin
(гПа)
dP
(гПа)
Po
(мм)
O2
(г/м3)
Тmin Tmax R s Состояние
почвы
00 27.04.17 340 (С) 4000 м  слаб. дождь{ливн. осадки}  10/10 300 м 
[Frnb|Ns]
+6.9 +6.9 100 +6  1010.9  0.9  753  295           
03 27.04.17 350 (С) 7-12{12}  12000 м  слаб. дождь  10/10 300 м 
[Frnb]
+5.4 +4.7 95 +3  1014.1  3.2  755  298  +5.4    13    влажная 
06 27.04.17 360 (С) 6{12}  50000 м  {дождь}  10/8 300 м средняя 
[Frnb|As op]
+6 +4.4 89 +4  1017.8  3.7  758  298  +4.9         
09 27.04.17 020 (С) 4{10}  50000 м    10/8 300 м средняя 
[Sc|As op]
+9 +1.7 60 +8  1020  2.2  760  296           
12 27.04.17 350 (С) 50000 м    10/10 300 м 
[Sc]
+8.5 +1.3 60 +7  1022  761  297           
15 27.04.17 340 (С) 20000 м    10/10 1000 м 
[Sc]
+6.9 +0.9 66 +8  1023.6  1.5  763  300    +10     
18 27.04.17 тихо ()   20000 м    ясно 
+1.9 +0.9 93 +2  1024.8  763  305           
21 27.04.17 тихо ()   20000 м    ясно 
-1.5 -1.5 100 -2  1025.1  0.3  764  310           
00 28.04.17 120 (ЮВ) 20000 м  туман  н/о 
-1.8 -1.8 100 -1  1024.1  -1  763  310           
06 28.04.17 200 (Ю) 50000 м    3/0 верхняя 
[Ci fib]
+13.4 +0.2 40 +13  1020.9  -2.1  761  292           
12 28.04.17 240 (ЮЗ) 6-10{14}  50000 м    6/5 600 м верхняя 
[Sc|Ci fib]
+18.8 +2.5 34 +19  1014.9  -2.5  756  285           
15 28.04.17 200 (Ю) 3{12}  50000 м    4/0 средняя, верхняя 
[Ac lent|Ci sp]
+15.8 +3.7 44 +16  1013.6  -1.4  755  287    +19.4       
18 28.04.17 220 (ЮЗ) 20000 м    8/0 средняя, верхняя 
[Ac lent|Ci sp]
+14.1 +4.2 51 +14  1012.4  -1.2  754  288           
21 28.04.17 290 (З) 3{15}  20000 м    10/0 средняя 
[Ac As]
+10.5 +4.8 68 +10  1014.3  1.9  756  293           
00 29.04.17 300 (СЗ) 50000 м    10/0 средняя 
[Ac und]
+8.1 +2.4 67 +7  1015.3  0.9  756  296           
03 29.04.17 310 (СЗ) 6{10}  50000 м    8/8 600 м кучево-дожд. 
[Cb cap]
+9 +2.8 65 +7  1017.5  2.2  758  295  +8        влажная 
06 29.04.17 290 (З) 7-11{15}  50000 м    ясно 600 м 
[Cu hum]
+10.8 -4.2 35 +9  1018.9  1.4  759  295           
12 29.04.17 310 (СЗ) 7-11{13}  50000 м    8/4 600 м верхняя 
[Cu hum|Ci fib]
+11.8 -6.2 28 +10  1020  0.5  760  294           
15 29.04.17 300 (СЗ) 3{11}  50000 м    8/8 600 м 
[Cu hum]
+8.2 -5.1 38 +8  1020.4  0.3  760  298    +13.6       
18 29.04.17 320 (СЗ) 5{13}  20000 м    10/0 верхняя 
[Ci sp]
+5.1 -0.9 65 +3  1022.6  2.1  762  301           
21 29.04.17 340 (С) 4{10}  20000 м    4/0 верхняя 
[Ci fib]
+0.6 -5.5 64 -2  1024.8  2.1  763  308           
00 30.04.17 310 (СЗ) 50000 м    3/0 средняя 
[Ac lent]
-0.5 -5.7 68 -4  1026.3  1.5  764  309           
03 30.04.17 330 (СЗ) 7-11{12}  50000 м    4/4 600 м 
[Cu hum]
+2 -8 47 -1  1028.1  1.8  766  307  -0.6        влажная 
06 30.04.17 320 (СЗ) 7-12{12}  50000 м    3/3 600 м 
[Cu hum]
+5.3 -11.3 29 +3  1028.7  0.7  766  304           
12 30.04.17 320 (СЗ) 6{12}  50000 м    9/9 600 м 
[Sc]
+6.9 -9.1 31 +5  1028.8  766  302           
Время (UTC), дата Ветер
(°,м/с) 
Видим.   Явления Облачность Т
(°С)
Тd
(°С)
f(%) Тe
(°С)
Pmin
(гПа)
dP
(гПа)
Po
(мм)
O2
(г/м3)
Тmin Tmax R s Состояние
почвы

Для получения пояснительной информации подведите курсор к названию столбца.

ПОГОДА Усть-Ишим - архив

Всё, что Вы хотите узнать о погоде Усть-Ишим - удобно и подробно!

Выберите нужную дату (начиная с 1 января 2015* года) и нажмите кнопку "Найти".
Будут отображены архивные сводки погоды по пункту Усть-Ишим, начиная с указанной даты.


Отображать данные в формате CSV (для использования в таблицах Excel)


Внимание! Наш архив погоды предназначен исключительно для личного некоммерческого использования в познавательных целях. Если Вам необходимы официальные справки о состоянии погоды (для производственных, юридических, коммерческих и т.п. целей), обращайтесь в органы Росгидромета.

*Примечание: данная дата относится к архиву по метеостанциям СССР (Россия, СНГ, Балтия).
Архив по метеостанциям Зарубежной Европы и Азии (кроме Китая) хранится 10 дней, по другим регионам земного шара (Китай, Африка, Америка, Австралия, Океания) - 1 день.

Усть-Ишим - район местоположения метеостанции


Название, широта, долгота, высота метеостанции:
Усть-Ишим 57.7°ш. 71.2°д. 56 м над ур. моря [Российская Федерация]

Дополнительная информация

В oтличие oт бoльшинства пoгoдных сайтoв мы публикуем пoдрoбную метеoинфoрмацию в детальнoм прoфессиoнальнoм фoрмате.

Характеристики температуры и влажнoсти вoздуха измеряются на высoте 2 м в тени вдали oт зданий и деревьев.
Скoрoсть ветра измеряется на высoте 10 м (на урoвне рoста челoвека скoрoсть ветра ниже в 1.5-2 раза). Если метеoстанция нахoдится в гoрoде или в лесу, тo скoрoсть ветра занижена на 2-4 м/с пo сравнению с oткрытым местoм. Скoрoсть ветра над акватoриями крупных рек и oзёр, а также на вершинах хoлмoв на 2-5 м/с выше, чем в oбычных услoвиях.
Атмoсфернoе давление в разных тoчках местнoсти мoжет значительнo oтличаться oт давления на метеoстанции, в зависимoсти oт услoвий рельефа (при пoдъёме на 10 м давление пoнижается примернo на 1 мм рт.ст.).